Torna al catalogo

FENGYUN 1C DEB

AttivoSSO
NORAD 30878·DEBRIS·🇨🇳 China

Lanciato May 10, 1999 da Taiyuan Satellite Launch Center

Loading…

Prossimi Passaggi (prossime 24 ore)

TLE

AggiornatoSource: Space-Track

Epoca: Sep 12, 2026, 22:20 UTC

1 30878U 99025AXQ 26255.93084205  .00000527  00000-0  30736-3 0  9998
2 30878  98.7289 255.0887 0039199 233.4099 189.3108 14.12373463  2261

Traccia FENGYUN 1C DEB in tempo reale con AllMySat

Download on the App Store